Location: Newark
(52.3735°N, 16.9806°E)
Time: 06:34:19
(UTC+00:00)

ISS - Pass Details

Date: 27 September 2021
Orbit: 417 x 423 km, 51.6° (Epoch: 16 October)

Event Time Altitude Azimuth Distance (km) Brightness Sun altitude
Rises 18:10:49 0° 276° (W) 2,365 1.8 -14.8°
Reaches altitude 10° 18:12:55 10° 274° (W) 1,501 0.3 -15.1°
Maximum altitude 18:16:17 71° 190° (S) 447 -3.7 -15.6°
Enters shadow 18:17:24 38° 116° (ESE) 653 -3.3 -15.7°
